EN

Hourly Weather Alvin

Today, 22 January, Friday

Time Temperature Precipitation Wind Pressure Humidity
00:00 +20°C° 0.2 mm 2 mps 758 mmHg 97%
01:00 +20°C° 0.3 mm 2 mps 758 mmHg 96%
02:00 +19°C° 0.3 mm 2 mps 758 mmHg 96%
03:00 +19°C° 0.3 mm 3 mps 758 mmHg 96%
04:00 +19°C° 0.7 mm 3 mps 758 mmHg 95%
05:00 +19°C° 0.7 mm 2 mps 758 mmHg 93%
06:00 +18°C° 0.7 mm 2 mps 758 mmHg 92%
07:00 +19°C° 0 mm 2 mps 758 mmHg 89%
08:00 +19°C° 0 mm 2 mps 759 mmHg 87%
09:00 +20°C° 0 mm 1 mps 759 mmHg 84%
10:00 +21°C° 0.1 mm 1 mps 759 mmHg 80%
11:00 +21°C° 0.1 mm 2 mps 759 mmHg 76%
12:00 +23°C° 0.1 mm 2 mps 759 mmHg 72%
13:00 +23°C° 0 mm 1 mps 758 mmHg 70%
14:00 +23°C° 0 mm 1 mps 758 mmHg 68%
15:00 +23°C° 0 mm 1 mps 758 mmHg 67%
16:00 +22°C° 0 mm 1 mps 758 mmHg 70%
17:00 +22°C° 0 mm 1 mps 758 mmHg 73%
18:00 +21°C° 0 mm 1 mps 758 mmHg 76%
19:00 +20°C° 0 mm 1 mps 759 mmHg 77%
20:00 +20°C° 0 mm 1 mps 759 mmHg 79%
21:00 +19°C° 0 mm 1 mps 760 mmHg 80%
22:00 +19°C° 0 mm 1 mps 760 mmHg 83%
23:00 +17°C° 0 mm 2 mps 760 mmHg 85%

Tomorrow, 23 January, Saturday

Time Temperature Precipitation Wind Pressure Humidity
00:00 +17°C° 0 mm 2 mps 760 mmHg 88%
01:00 +17°C° 0 mm 3 mps 760 mmHg 89%
02:00 +17°C° 0 mm 4 mps 760 mmHg 91%
03:00 +15°C° 0 mm 4 mps 760 mmHg 92%
04:00 +15°C° 0 mm 4 mps 760 mmHg 91%
05:00 +15°C° 0 mm 4 mps 760 mmHg 90%
06:00 +15°C° 0 mm 4 mps 761 mmHg 89%
07:00 +15°C° 0 mm 4 mps 761 mmHg 89%
08:00 +15°C° 0 mm 4 mps 761 mmHg 88%
09:00 +15°C° 0 mm 4 mps 762 mmHg 88%
10:00 +15°C° 0 mm 4 mps 762 mmHg 88%
11:00 +17°C° 0 mm 4 mps 762 mmHg 87%
12:00 +17°C° 0 mm 4 mps 761 mmHg 86%
13:00 +17°C° 0 mm 4 mps 761 mmHg 85%
14:00 +17°C° 0 mm 5 mps 760 mmHg 85%
15:00 +19°C° 0 mm 5 mps 760 mmHg 84%
16:00 +17°C° 0 mm 5 mps 760 mmHg 86%
17:00 +17°C° 0 mm 5 mps 760 mmHg 88%
18:00 +16°C° 0 mm 5 mps 760 mmHg 90%
19:00 +16°C° 0 mm 5 mps 760 mmHg 91%
20:00 +16°C° 0 mm 5 mps 760 mmHg 92%
21:00 +17°C° 0 mm 4 mps 760 mmHg 93%
22:00 +17°C° 0 mm 4 mps 760 mmHg 95%
23:00 +17°C° 0 mm 4 mps 760 mmHg 96%

Day after tomorrow, 24 January, Sunday

Time Temperature Precipitation Wind Pressure Humidity
00:00 +18°C° 0 mm 3 mps 760 mmHg 97%
01:00 +18°C° 0.1 mm 3 mps 759 mmHg 97%
02:00 +18°C° 0.1 mm 3 mps 759 mmHg 97%
03:00 +19°C° 0.1 mm 3 mps 759 mmHg 97%
04:00 +19°C° 0.2 mm 3 mps 759 mmHg 97%
05:00 +19°C° 0.2 mm 3 mps 758 mmHg 97%
06:00 +19°C° 0.2 mm 3 mps 758 mmHg 97%
07:00 +19°C° 0.1 mm 4 mps 759 mmHg 97%
08:00 +20°C° 0.1 mm 4 mps 759 mmHg 96%
09:00 +21°C° 0.1 mm 4 mps 759 mmHg 96%
10:00 +21°C° 0.2 mm 5 mps 759 mmHg 92%
11:00 +22°C° 0.2 mm 6 mps 758 mmHg 89%
12:00 +23°C° 0.2 mm 7 mps 758 mmHg 86%
13:00 +23°C° 0 mm 7 mps 757 mmHg 85%
14:00 +23°C° 0 mm 7 mps 757 mmHg 84%
15:00 +23°C° 0 mm 7 mps 756 mmHg 82%
16:00 +23°C° 0 mm 6 mps 756 mmHg 85%
17:00 +22°C° 0 mm 6 mps 756 mmHg 88%
18:00 +22°C° 0 mm 5 mps 755 mmHg 90%
19:00 +22°C° 0 mm 5 mps 756 mmHg 91%
20:00 +22°C° 0 mm 5 mps 756 mmHg 92%
21:00 +22°C° 0 mm 5 mps 756 mmHg 93%
22:00 +22°C° 0.1 mm 6 mps 755 mmHg 92%
23:00 +22°C° 0.1 mm 6 mps 755 mmHg 92%

25 January, Monday

Time Temperature Precipitation Wind Pressure Humidity
00:00 +22°C° 0.1 mm 6 mps 755 mmHg 92%
01:00 +22°C° 0 mm 6 mps 755 mmHg 91%
02:00 +22°C° 0 mm 6 mps 754 mmHg 91%
03:00 +22°C° 0 mm 6 mps 754 mmHg 90%
04:00 +22°C° 0 mm 6 mps 754 mmHg 89%
05:00 +22°C° 0 mm 6 mps 754 mmHg 89%
06:00 +22°C° 0 mm 6 mps 754 mmHg 88%
07:00 +22°C° 0 mm 6 mps 754 mmHg 87%
08:00 +22°C° 0 mm 6 mps 755 mmHg 87%
09:00 +23°C° 0 mm 6 mps 755 mmHg 86%
10:00 +23°C° 0.1 mm 6 mps 755 mmHg 83%
11:00 +23°C° 0.1 mm 6 mps 755 mmHg 79%
12:00 +23°C° 0.1 mm 6 mps 755 mmHg 76%
13:00 +23°C° 0 mm 5 mps 755 mmHg 64%
14:00 +23°C° 0 mm 4 mps 755 mmHg 53%
15:00 +25°C° 0 mm 3 mps 755 mmHg 41%
16:00 +24°C° 0 mm 3 mps 755 mmHg 43%
17:00 +21°C° 0 mm 2 mps 755 mmHg 45%
18:00 +20°C° 0 mm 2 mps 755 mmHg 47%
19:00 +20°C° 0 mm 2 mps 756 mmHg 46%
20:00 +19°C° 0 mm 2 mps 756 mmHg 45%
21:00 +18°C° 0 mm 2 mps 757 mmHg 44%
22:00 +18°C° 0 mm 2 mps 757 mmHg 44%
23:00 +17°C° 0 mm 2 mps 757 mmHg 44%

26 January, Tuesday

Time Temperature Precipitation Wind Pressure Humidity
00:00 +17°C° 0 mm 2 mps 757 mmHg 44%
01:00 +17°C° 0 mm 2 mps 757 mmHg 46%
02:00 +16°C° 0 mm 2 mps 757 mmHg 48%
03:00 +16°C° 0 mm 2 mps 757 mmHg 50%
04:00 +16°C° 0 mm 2 mps 757 mmHg 52%
05:00 +16°C° 0 mm 2 mps 757 mmHg 53%
06:00 +16°C° 0 mm 3 mps 757 mmHg 55%
07:00 +16°C° 0 mm 3 mps 757 mmHg 56%
08:00 +15°C° 0 mm 4 mps 757 mmHg 58%
09:00 +17°C° 0 mm 4 mps 758 mmHg 59%
10:00 +17°C° 0 mm 4 mps 757 mmHg 63%
11:00 +17°C° 0 mm 4 mps 757 mmHg 68%
12:00 +17°C° 0 mm 5 mps 757 mmHg 73%
13:00 +18°C° 0 mm 4 mps 756 mmHg 77%
14:00 +19°C° 0 mm 3 mps 756 mmHg 81%
15:00 +20°C° 0 mm 3 mps 756 mmHg 85%
16:00 +19°C° 0 mm 3 mps 756 mmHg 87%
17:00 +19°C° 0 mm 3 mps 756 mmHg 89%
18:00 +19°C° 0 mm 3 mps 756 mmHg 91%
19:00 +19°C° 0 mm 3 mps 756 mmHg 92%
20:00 +19°C° 0 mm 3 mps 757 mmHg 93%
21:00 +19°C° 0 mm 3 mps 757 mmHg 94%
22:00 +19°C° 0 mm 2 mps 757 mmHg 95%
23:00 +19°C° 0 mm 2 mps 757 mmHg 95%

27 January, Wednesday

Time Temperature Precipitation Wind Pressure Humidity
00:00 +18°C° 0 mm 2 mps 757 mmHg 96%
01:00 +18°C° 0 mm 2 mps 757 mmHg 95%
02:00 +18°C° 0 mm 3 mps 757 mmHg 94%
03:00 +18°C° 0 mm 3 mps 757 mmHg 93%
04:00 +18°C° 0.2 mm 4 mps 758 mmHg 91%
05:00 +18°C° 0.2 mm 4 mps 758 mmHg 88%
06:00 +17°C° 0.2 mm 5 mps 759 mmHg 85%
07:00 +16°C° 0 mm 5 mps 760 mmHg 78%
08:00 +16°C° 0 mm 5 mps 761 mmHg 71%
09:00 +16°C° 0 mm 5 mps 762 mmHg 64%
10:00 +17°C° 0 mm 6 mps 762 mmHg 56%
11:00 +19°C° 0 mm 6 mps 763 mmHg 48%
12:00 +21°C° 0 mm 6 mps 763 mmHg 40%
13:00 +21°C° 0 mm 6 mps 763 mmHg 38%
14:00 +21°C° 0 mm 6 mps 763 mmHg 35%
15:00 +21°C° 0 mm 6 mps 763 mmHg 32%
16:00 +20°C° 0 mm 5 mps 763 mmHg 35%
17:00 +18°C° 0 mm 4 mps 764 mmHg 38%
18:00 +17°C° 0 mm 4 mps 764 mmHg 41%
19:00 +17°C° 0 mm 3 mps 765 mmHg 41%
20:00 +16°C° 0 mm 3 mps 765 mmHg 42%
21:00 +16°C° 0 mm 2 mps 766 mmHg 43%
22:00 +15°C° 0 mm 2 mps 766 mmHg 44%
23:00 +15°C° 0 mm 2 mps 767 mmHg 46%
Show more